Simultaneous Nadir Overpasses (SNOs) Predictions

Prediction of SNOs between GOES-15 and METOP-A Satellite Orbit:

Table of predicted SNOs for the next 14.0 days since TLE Epoch: 10/3/2014
Index Date Time (GOES-15) GOES-15 Lat,Lon METOP-A Lat,Lon Distance(km) Time Diff (sec)
1 10/05/2014 06:45:07 0.34,-135.32 -0.50,-138.93 411.99 80
2 10/06/2014 06:27:08 0.33,-135.32 0.62,-133.93 157.77 80
3 10/07/2014 18:43:20 -0.34,-135.37 0.33,-138.50 356.52 80
4 10/08/2014 18:25:20 -0.33,-135.37 -0.74,-133.49 213.14 80
5 10/10/2014 06:44:20 0.34,-135.32 -0.26,-138.09 315.26 80
6 10/11/2014 06:23:39 0.33,-135.32 0.82,-133.09 253.93 80
7 10/12/2014 18:39:51 -0.33,-135.35 0.18,-137.65 261.23 80
8 10/13/2014 18:21:51 -0.33,-135.35 -0.95,-132.65 307.84 80
9 10/15/2014 06:40:51 0.33,-135.30 -0.10,-137.24 221.18 80
10 10/16/2014 06:18:44 0.32,-135.29 0.98,-132.23 347.43 6




NCC Satellite Simultaneous Nadir Overpasses (SNOs) Prediction Service
